Fort Irwin/Barstow, Bicycle L, CA

2:11 PM PDT on October 14, 2019 (GMT -0700)
Fort Irwin/Barstow, Bicycle L

Weather History for KBYS - July, 2019

Change the Weather History Date:

Wednesday, July 24, 2019

  Actual Average (KDAG) Record (KDAG)
Temperature  
Mean Temperature 90 °F 89 °F  
Max Temperature 104 °F 105 °F 114 °F (2018)
Min Temperature 79 °F 74 °F 62 °F (1948)
Degree Days  
Heating Degree Days 0    
Cooling Degree Days 26    
Growing Degree Days 40 (Base 50)    
Moisture  
Dew Point 47 °F    
Average Humidity 21    
Maximum Humidity 33    
Minimum Humidity 15    
Precipitation  
Precipitation 0.00 in 0.02 in 1.17 in (2002)
Month to date precipitation 0.33  
Year to date precipitation 2.37  
Sea Level Pressure  
Sea Level Pressure 29.99 in    
Wind  
Wind Speed 3 mph (South)    
Max Wind Speed 16 mph    
Max Gust Speed 18 mph    
Visibility 10 miles    
Events      
T = Trace of Precipitation, MM = Missing Value Source: NWS Daily Summary

Daily Weather History Graph

Daily Weather History Graph

Search for Another Location

Airport or City:

Astronomy

Jul. 24, 2019 Rise Set
Actual Time 5:49 AM PDT 7:56 PM PDT
Civil Twilight 5:20 AM PDT 8:24 PM PDT
Nautical Twilight 4:45 AM PDT 8:59 PM PDT
Astronomical Twilight 4:08 AM PDT 9:36 PM PDT
Moon No Moon Rise 12:49 PM PDT (7/24)
Length of Visible Light 15h 04m
Length of Day
14h 07m
Waning Gibbous, 53% of the Moon is Illuminated
Jul 24
Waning Gibbous
Jul 24
Last Quarter
Jul 31
New
Aug 7
First Quarter
Aug 15
Full

Hourly Weather History & Observations

Time (PDT) Temp. Dew Point Humidity Pressure Visibility Wind Dir Wind Speed Gust Speed Precip Events Conditions
12:58 AM 86.7 °F 49.3 °F 27% 30.02 in 10.0 mi Calm Calm - N/A   Mostly Cloudy
1:58 AM 86.9 °F 48.2 °F 26% 30.01 in 10.0 mi Variable 5.8 mph - N/A   Clear
2:58 AM 87.8 °F 47.7 °F 25% 30.01 in 10.0 mi SSW 3.5 mph - N/A   Clear
3:58 AM 84.9 °F 47.8 °F 27% 30.01 in 10.0 mi Calm Calm - N/A   Clear
4:58 AM 81.0 °F 48.2 °F 32% 30.03 in 10.0 mi Variable 3.5 mph - N/A   Clear
5:58 AM 79.5 °F 47.8 °F 33% 30.03 in 10.0 mi Calm Calm - N/A   Clear
6:58 AM 81.7 °F 48.4 °F 31% 30.04 in 10.0 mi Calm Calm - N/A   Clear
7:58 AM 89.4 °F 48.6 °F 24% 30.05 in 10.0 mi Calm Calm - N/A   Clear
8:58 AM 94.3 °F 48.0 °F 21% 30.06 in 10.0 mi Calm Calm - N/A   Partly Cloudy
9:58 AM 99.9 °F 47.3 °F 17% 30.05 in 10.0 mi Calm Calm - N/A   Clear
10:58 AM 100.6 °F 46.2 °F 16% 30.03 in 10.0 mi Calm Calm - N/A   Clear
11:58 AM 100.6 °F 46.0 °F 16% 30.02 in 10.0 mi Variable 5.8 mph - N/A   Clear
12:58 PM 100.0 °F 46.4 °F 16% 30.01 in 10.0 mi SSW 8.1 mph - N/A   Clear
1:58 PM 101.1 °F 46.2 °F 16% 29.98 in 10.0 mi Variable 4.6 mph 18.4 mph N/A   Partly Cloudy
2:58 PM 100.6 °F 46.2 °F 16% 29.96 in 10.0 mi South 8.1 mph 18.4 mph N/A   Clear
3:58 PM 102.2 °F 46.2 °F 15% 29.94 in 10.0 mi South 10.4 mph 16.1 mph N/A   Clear
4:58 PM 99.7 °F 46.2 °F 16% 29.92 in 10.0 mi Calm Calm - N/A   Clear
5:58 PM 99.3 °F 46.0 °F 16% 29.91 in 10.0 mi South 11.5 mph 17.3 mph N/A   Partly Cloudy
6:58 PM 99.0 °F 46.0 °F 16% 29.92 in 10.0 mi SSE 5.8 mph - N/A   Partly Cloudy
7:58 PM 97.9 °F 46.0 °F 17% 29.93 in 10.0 mi SSE 8.1 mph - N/A   Scattered Clouds
8:58 PM 95.9 °F 48.0 °F 19% 29.94 in 10.0 mi SSW 16.1 mph - N/A   Partly Cloudy
9:58 PM 93.0 °F 47.5 °F 21% 29.97 in 10.0 mi SSW 10.4 mph - N/A   Clear
10:58 PM 90.7 °F 47.3 °F 22% 29.97 in 10.0 mi SSW 10.4 mph - N/A   Clear
11:58 PM 89.6 °F 47.5 °F 23% 29.99 in 10.0 mi Calm Calm - N/A   Scattered Clouds